• In Hungary
  • List of Countries
  • For 7 days
  • Water Temperature
  • Satellite Maps
  • Weather Map
  • News
  • Weather Widgets
  • user-avatar
    Login

    Hourly Weather Galeznik

    Today, 19 June, Tuesday

    Time Temperature Precipitation Wind Pressure Humidity
    00:00 +15°C° 0 mm 2 mps 750 mmHg 86%
    01:00 +13°C° 0 mm 3 mps 749 mmHg 88%
    02:00 +13°C° 0 mm 3 mps 749 mmHg 87%
    03:00 +13°C° 0 mm 3 mps 749 mmHg 87%
    04:00 +13°C° 0 mm 4 mps 749 mmHg 86%
    05:00 +15°C° 0.1 mm 4 mps 749 mmHg 84%
    06:00 +16°C° 0.1 mm 5 mps 749 mmHg 81%
    07:00 +17°C° 0.1 mm 5 mps 749 mmHg 78%
    08:00 +19°C° 0.1 mm 6 mps 749 mmHg 76%
    09:00 +19°C° 0.1 mm 6 mps 749 mmHg 74%
    10:00 +18°C° 0.1 mm 7 mps 750 mmHg 71%
    11:00 +20°C° 0 mm 7 mps 750 mmHg 65%
    12:00 +21°C° 0 mm 7 mps 750 mmHg 59%
    13:00 +22°C° 0 mm 7 mps 750 mmHg 52%
    14:00 +22°C° 0 mm 7 mps 750 mmHg 55%
    15:00 +22°C° 0 mm 7 mps 750 mmHg 57%
    16:00 +22°C° 0 mm 6 mps 750 mmHg 60%
    17:00 +21°C° 0 mm 6 mps 750 mmHg 64%
    18:00 +20°C° 0 mm 6 mps 750 mmHg 69%
    19:00 +19°C° 0 mm 5 mps 750 mmHg 74%
    20:00 +17°C° 0 mm 5 mps 751 mmHg 80%
    21:00 +15°C° 0 mm 4 mps 751 mmHg 87%
    22:00 +14°C° 0 mm 3 mps 751 mmHg 93%
    23:00 +14°C° 0 mm 3 mps 751 mmHg 94%

    Tomorrow, 20 June, Wednesday

    Time Temperature Precipitation Wind Pressure Humidity
    00:00 +13°C° 0 mm 3 mps 752 mmHg 94%
    01:00 +13°C° 0 mm 3 mps 752 mmHg 95%
    02:00 +12°C° 0 mm 3 mps 752 mmHg 94%
    03:00 +12°C° 0 mm 3 mps 752 mmHg 94%
    04:00 +11°C° 0 mm 3 mps 752 mmHg 94%
    05:00 +13°C° 0 mm 3 mps 753 mmHg 84%
    06:00 +16°C° 0 mm 3 mps 753 mmHg 75%
    07:00 +17°C° 0 mm 4 mps 753 mmHg 65%
    08:00 +19°C° 0 mm 4 mps 753 mmHg 58%
    09:00 +20°C° 0 mm 4 mps 753 mmHg 51%
    10:00 +21°C° 0 mm 4 mps 753 mmHg 45%
    11:00 +22°C° 0 mm 4 mps 753 mmHg 42%
    12:00 +23°C° 0 mm 5 mps 752 mmHg 39%
    13:00 +25°C° 0 mm 5 mps 752 mmHg 36%
    14:00 +25°C° 0 mm 5 mps 752 mmHg 36%
    15:00 +25°C° 0 mm 5 mps 751 mmHg 36%
    16:00 +25°C° 0 mm 5 mps 751 mmHg 36%
    17:00 +23°C° 0 mm 4 mps 751 mmHg 43%
    18:00 +22°C° 0 mm 3 mps 751 mmHg 50%
    19:00 +21°C° 0 mm 3 mps 750 mmHg 56%
    20:00 +20°C° 0 mm 3 mps 750 mmHg 61%
    21:00 +19°C° 0 mm 3 mps 750 mmHg 66%
    22:00 +17°C° 0 mm 3 mps 750 mmHg 71%
    23:00 +17°C° 0 mm 3 mps 750 mmHg 76%

    Day after tomorrow, 21 June, Thursday

    Time Temperature Precipitation Wind Pressure Humidity
    00:00 +17°C° 0 mm 3 mps 749 mmHg 81%
    01:00 +17°C° 0 mm 3 mps 749 mmHg 86%
    02:00 +16°C° 0 mm 3 mps 749 mmHg 88%
    03:00 +16°C° 0 mm 3 mps 748 mmHg 91%
    04:00 +16°C° 0 mm 3 mps 748 mmHg 93%
    05:00 +18°C° 0 mm 3 mps 748 mmHg 86%
    06:00 +20°C° 0 mm 4 mps 747 mmHg 79%
    07:00 +21°C° 0 mm 4 mps 747 mmHg 71%
    08:00 +23°C° 0.1 mm 5 mps 746 mmHg 65%
    09:00 +25°C° 0.1 mm 5 mps 745 mmHg 58%
    10:00 +27°C° 0.1 mm 6 mps 745 mmHg 51%
    11:00 +28°C° 0.1 mm 6 mps 744 mmHg 48%
    12:00 +28°C° 0.1 mm 6 mps 743 mmHg 46%
    13:00 +29°C° 0.1 mm 6 mps 742 mmHg 43%
    14:00 +27°C° 1.1 mm 6 mps 742 mmHg 56%
    15:00 +23°C° 1.1 mm 5 mps 741 mmHg 70%
    16:00 +21°C° 1.1 mm 5 mps 740 mmHg 83%
    17:00 +19°C° 1.3 mm 5 mps 740 mmHg 85%
    18:00 +16°C° 1.3 mm 6 mps 740 mmHg 87%
    19:00 +14°C° 1.3 mm 6 mps 740 mmHg 89%
    20:00 +13°C° 0.1 mm 6 mps 740 mmHg 88%
    21:00 +11°C° 0.1 mm 7 mps 741 mmHg 87%
    22:00 +10°C° 0.1 mm 7 mps 741 mmHg 86%
    23:00 +10°C° 0.1 mm 7 mps 741 mmHg 85%

    22 June, Friday

    Time Temperature Precipitation Wind Pressure Humidity
    00:00 +9°C° 0.1 mm 7 mps 741 mmHg 84%
    01:00 +9°C° 0.1 mm 7 mps 741 mmHg 82%
    02:00 +9°C° 0.2 mm 7 mps 741 mmHg 82%
    03:00 +9°C° 0.2 mm 7 mps 741 mmHg 82%
    04:00 +9°C° 0.2 mm 7 mps 741 mmHg 81%
    05:00 +10°C° 0.2 mm 8 mps 741 mmHg 77%
    06:00 +11°C° 0.2 mm 8 mps 741 mmHg 73%
    07:00 +11°C° 0.2 mm 9 mps 742 mmHg 68%
    08:00 +12°C° 0.2 mm 9 mps 742 mmHg 65%
    09:00 +12°C° 0.2 mm 8 mps 742 mmHg 62%
    10:00 +13°C° 0.2 mm 8 mps 743 mmHg 59%
    11:00 +13°C° 0.4 mm 8 mps 743 mmHg 59%
    12:00 +15°C° 0.4 mm 8 mps 743 mmHg 59%
    13:00 +15°C° 0.4 mm 7 mps 743 mmHg 59%
    14:00 +15°C° 0.4 mm 7 mps 743 mmHg 63%
    15:00 +14°C° 0.4 mm 7 mps 743 mmHg 67%
    16:00 +14°C° 0.4 mm 6 mps 743 mmHg 71%
    17:00 +14°C° 0.3 mm 6 mps 744 mmHg 72%
    18:00 +14°C° 0.3 mm 5 mps 744 mmHg 73%
    19:00 +13°C° 0.3 mm 5 mps 744 mmHg 74%
    20:00 +12°C° 0.2 mm 5 mps 744 mmHg 76%
    21:00 +12°C° 0.2 mm 5 mps 744 mmHg 77%
    22:00 +11°C° 0.2 mm 4 mps 745 mmHg 79%
    23:00 +11°C° 0.3 mm 4 mps 745 mmHg 82%

    23 June, Saturday

    Time Temperature Precipitation Wind Pressure Humidity
    00:00 +10°C° 0.3 mm 4 mps 745 mmHg 85%
    01:00 +10°C° 0.3 mm 4 mps 744 mmHg 88%
    02:00 +10°C° 0.1 mm 4 mps 745 mmHg 88%
    03:00 +10°C° 0.1 mm 4 mps 745 mmHg 89%
    04:00 +10°C° 0.1 mm 4 mps 745 mmHg 89%
    05:00 +10°C° 0.3 mm 4 mps 745 mmHg 87%
    06:00 +11°C° 0.3 mm 4 mps 745 mmHg 86%
    07:00 +12°C° 0.3 mm 4 mps 745 mmHg 84%
    08:00 +12°C° 0.5 mm 4 mps 745 mmHg 83%
    09:00 +13°C° 0.5 mm 5 mps 746 mmHg 82%
    10:00 +13°C° 0.5 mm 5 mps 746 mmHg 81%
    11:00 +15°C° 0.2 mm 5 mps 746 mmHg 70%
    12:00 +16°C° 0.2 mm 6 mps 746 mmHg 60%
    13:00 +17°C° 0.2 mm 6 mps 746 mmHg 49%
    14:00 +17°C° 0 mm 6 mps 746 mmHg 48%
    15:00 +17°C° 0 mm 6 mps 746 mmHg 46%
    16:00 +17°C° 0 mm 5 mps 747 mmHg 44%
    17:00 +16°C° 0 mm 5 mps 747 mmHg 48%
    18:00 +15°C° 0 mm 4 mps 747 mmHg 52%
    19:00 +16°C° 0 mm 3 mps 747 mmHg 56%
    20:00 +13°C° 0 mm 3 mps 747 mmHg 60%
    21:00 +12°C° 0 mm 3 mps 747 mmHg 63%
    22:00 +11°C° 0 mm 3 mps 747 mmHg 67%
    23:00 +11°C° 0 mm 3 mps 747 mmHg 70%

    24 June, Sunday

    Time Temperature Precipitation Wind Pressure Humidity
    00:00 +11°C° 0 mm 3 mps 747 mmHg 73%
    01:00 +11°C° 0 mm 3 mps 748 mmHg 76%
    02:00 +11°C° 0 mm 3 mps 748 mmHg 80%
    03:00 +10°C° 0 mm 3 mps 748 mmHg 84%
    04:00 +10°C° 0 mm 3 mps 747 mmHg 87%
    05:00 +12°C° 0 mm 3 mps 748 mmHg 80%
    06:00 +14°C° 0 mm 3 mps 748 mmHg 73%
    07:00 +15°C° 0 mm 4 mps 748 mmHg 66%
    08:00 +18°C° 0 mm 3 mps 748 mmHg 59%
    09:00 +19°C° 0 mm 3 mps 748 mmHg 52%
    10:00 +20°C° 0 mm 3 mps 749 mmHg 45%
    11:00 +20°C° 0 mm 3 mps 749 mmHg 43%
    12:00 +21°C° 0 mm 3 mps 749 mmHg 42%
    13:00 +21°C° 0 mm 3 mps 749 mmHg 40%
    14:00 +21°C° 0 mm 3 mps 749 mmHg 41%
    15:00 +20°C° 0 mm 3 mps 749 mmHg 42%
    16:00 +20°C° 0 mm 3 mps 749 mmHg 43%
    17:00 +19°C° 0 mm 3 mps 749 mmHg 47%
    18:00 +18°C° 0 mm 2 mps 749 mmHg 52%
    19:00 +18°C° 0 mm 2 mps 749 mmHg 56%
    20:00 +16°C° 0 mm 2 mps 749 mmHg 60%
    21:00 +14°C° 0 mm 2 mps 750 mmHg 65%
    22:00 +12°C° 0 mm 2 mps 750 mmHg 69%
    23:00 +12°C° 0 mm 2 mps 750 mmHg 70%
    Show more